Flag for Aruba Weather past 2 weeks in Oranjestad, Aruba

Now
84 °F

Scattered clouds.


Feels Like: 90 °F
Forecast: 78 / 86 °F
Wind: 22 mph from East

Location: Queen Beatrix Airport - Aruba

Current Time: Jan 26, 2015 at 11:10:29 AM

Latest Report: Jan 26, 2015 at 10:00 AM


Visibility: N/A

Pressure: 29.92 "Hg

Humidity: 66%

Dew point: 72 °F

Location of OranjestadLocation

Historic Weather in Oranjestad — Graph

°F

Oranjestad temperature yesterday

Maximum temperature yesterday: 88 °F (at 12:00 PM)
Minimum temperature yesterday: 79 °F (at 12:00 AM)
Average temperature yesterday: 82 °F

Past Weeks' High & Low Weather Summary

 TemperatureHumidityPressure
High88 °F (Jan 13, 12:00 PM)100% (Jan 15, 10:00 AM)29.98 "Hg (Jan 15, 10:00 AM)
Low77 °F (Jan 19, 4:00 AM)21% (Jan 13, 6:00 PM)29.83 "Hg (Jan 13, 4:00 PM)
Average82 °F76%29.90 "Hg
* Reported Jan 11 10:00 AM — Jan 26 10:00 AM, Oranjestad, Weather by CustomWeather, © 2014

Note: Actual official high and low records may vary slightly from our data, if they occured in-between our weather recording intervals... More about our weather records

Advertising

Oranjestad weather history for previous 24 hours

 ConditionsComfort  
Time TempWeatherWind HumidityBarometerVisibility
10:00 AM
Jan 26
84 °FScattered clouds.22 mph66%29.92 "HgN/A
9:00 AM82 °FScattered clouds.20 mph74%29.92 "HgN/A
8:00 AM81 °FPassing clouds.16 mph79%29.89 "HgN/A
7:00 AM79 °FPassing clouds.18 mph79%29.86 "HgN/A
6:00 AM79 °FPassing clouds.16 mph84%29.86 "HgN/A
5:00 AM79 °FPassing clouds.16 mph84%29.83 "HgN/A
4:00 AM79 °FPassing clouds.17 mph84%29.83 "HgN/A
3:00 AM79 °FPassing clouds.18 mph84%29.86 "HgN/A
2:00 AM79 °FPassing clouds.18 mph84%29.86 "HgN/A
1:00 AM79 °FPassing clouds.17 mph84%29.89 "HgN/A
12:00 AM79 °FPassing clouds.17 mph84%29.89 "HgN/A
11:00 PM
Jan 25
81 °FPassing clouds.17 mph79%29.89 "HgN/A
10:00 PM81 °FPassing clouds.22 mph79%29.86 "HgN/A
9:00 PM79 °FPassing clouds.20 mph84%29.86 "HgN/A
8:00 PM81 °FPassing clouds.18 mph79%29.86 "HgN/A
7:00 PM81 °FPassing clouds.18 mph79%29.83 "HgN/A
6:00 PM82 °FPassing clouds.22 mph74%29.83 "HgN/A
5:00 PM84 °FScattered clouds.20 mph70%29.83 "HgN/A
4:00 PM84 °FScattered clouds.21 mph66%29.83 "HgN/A
3:00 PM88 °FPassing clouds.21 mph59%29.83 "HgN/A
2:00 PM88 °FPassing clouds.24 mph59%29.86 "HgN/A
1:00 PM88 °FPassing clouds.20 mph59%29.89 "HgN/A
12:00 PM88 °FPassing clouds.21 mph59%29.92 "HgN/A
11:00 AM86 °FPassing clouds.18 mph62%29.92 "HgN/A
Weather by CustomWeather, © 2014

See weather overviewHow to use our weather pages